Location: Kershaw
(34.5481°N, 80.5823°W)
Time: 15:57:27
(UTC+00:00)

Courier 1B Rocket - Pass Details

Date: 28 September 2022
Orbit: 920 x 1202 km, 28.2° (Epoch: 08 December)

Event Time Altitude Azimuth Distance (km) Brightness Sun altitude
Rises 02:58:07 0° 247° (WSW) 3,581 8.2 -44.8°
Enters shadow 02:58:58 - 246° (WSW) 3,281 8.0 -44.9°
Reaches altitude 10° 03:00:52 10° 241° (WSW) 2,618 - -45.2°
Maximum altitude 03:06:44 43° 171° (S) 1,259 - -46.1°
Drops below altitude 10° 03:12:36 10° 101° (ESE) 2,621 - -47.0°
Sets 03:15:22 0° 95° (E) 3,586 - -47.4°
